SCP
0 0 0 0 0 0 0 0 0 0 0 0 0 0 0 0 0 0 0 0 0 0 0 0 0 0 0 0 0 0 0 0 0 0 0 0 0 0
0 0 0 0 0 0 0 0 0 0 0 0 0 0 0 0 0 0 0 0 0 0 0 0 0 0 0 0 0 0 0 0 0 0 0 0 0 0
0 0 0 0 0 0 0 0 0 0 0 0 0 0 0 0 0 0 0 0 0 0 0 0 0 0 0 0 0 0 0 0 0 0 0 0 0 0
0 0 0 0 0 0 0 0 0 0 0 0 0 0 0 0 0 0 0 0 0 0 0 0 0 0 0 0 0 0 0 0 0 0 0 0 0 0
0 0 0 0 0 0 0 0 0 0 0 0 0 0 0 0 0 0 0 0 0 0 0 0 0 0 0 0 0 0 0 0 0 0 0 0 0 0
0 0 0 0 0 0 0 0 0 0 0 0 0 0 0 0 0 0 0 0 0 0 0 0 0 0 0 0 0 0 0 0 0 0 0 0 0 0
0 0 0 0 0 0 0 0 0 0 0 0 0 0 0 0 0 0 0 0 0 0 0 0 0 0 0 0 0 0 0 0 0 0 0 0 0 0
0 0 0 0 0 0 0 0 0 0 0 0 0 0 0 0 0 0 0 0 0 0 0 0 0 0 0 0 0 0 0 0 0 0 0 0 0 0
0 0 0 0 0 0 0 0 0 0 0 0 0 0 0 0 0 0 0 0 0 0 0 0 0 0 0 0 0 0 0 0 0 0 0 0 0 0
0 0 0 0 0 0 0 0 0 0 0 0 0 0 0 0 0 0 0 0 0 0 0 0 0 0 0 0 0 0 0 0 0 0 0 0 0 0
0 0 0 0 0 0 0 0 0 0 0 0 0 0 0 0 0 0 0 0 0 0 0 0 0 0 0 0 0 0 0 0 0 0 0 0 0 0
0 0 0 0 0 0 0 0 0 0 0 0 0 0 0 0 0 0 0 0 0 0 0 0 0 0 0 0 0 0 0 0 0 0 0 0 0 0
0 0 0 0 0 0 0 0 0 0 0 0 0 0 0 0 0 0 0 0 0 0 0 0 0 0 0 0 0 0 0 0 0 0 0 0 0 0
0 0 0 0 0 0 0 0 0 0 0 0 0 0 0 0 0 0 0 0 0 0 0 0 0 0 0 0 0 0 0 0 0 0 0 0 0 0
0 0 0 0 0 0 0 0 0 0 0 0 0 0 0 0 0 0 0 0 0 0 0 0 0 0 0 0 0 0 0 0 0 0 0 0 0 0
0 0 0 0 0 0 0 0 0 0 0 0 0 0 0 0 0 0 0 0 0 0 0 0 0 0 0 0 0 0 0 0 0 0 0 0 0 0
0 0 0 0 0 0 0 0 0 0 0 0 0 0 0 0 0 0 0 0 0 0 0 0 0 0 0 0 0 0 0 0 0 0 0 0 0 0
0 0 0 0 0 0 0 0 0 0 0 0 0 0 0 0 0 0 0 0 0 0 0 0 0 0 0 0 0 0 0 0 0 0 0 0 0 0
0 0 0 0 0 0 0 0 0 0 0 0 0 0 0 0 0 0 0 0 0 0 0 0 0 0 0 0 0 0 0 0 0 0 0 0 0 0
0 0 0 0 0 0 0 0 0 0 0 0 0 0 0 0 0 0 0 0 0 0 0 0 0 0 0 0 0 0 0 0 0 0 0 0 0 0
0 0 0 0 0 0 0 0 0 0 0 0 0 0 0 0 0 0 0 0 0 0 0 0 0 0 0 0 0 0 0 0 0 0 0 0 0 0
0 0 0 0 0 0 0 0 0 0 0 0 0 0 0 0 0 0 0 0 0 0 0 0 0 0 0 0 0 0 0 0 0 0 0 0 0 0
0 0 0 0 0 0 0 0 0 0 0 0 0 0 0 0 0 0 0 0 0 0 0 0 0 0 0 0 0 0 0 0 0 0 0 0 0 0
Wind_Speed
4 4 3 2 2 2 3 3 3 3 3 3 3 2 3 4 9 6 5 17 23 23 23 23 23 23 24 25 25 25 24 25 25 26 26 27 27 28
3 4 3 2 2 2 3 3 4 4 4 3 4 4 5 6 13 8 8 22 21 22 23 23 24 24 24 24 24 25 25 25 26 26 27 27 27 28
3 4 3 3 3 2 2 2 3 4 5 4 3 3 4 6 8 7 8 8 9 20 23 24 24 24 24 25 25 25 25 25 26 26 27 27 27 27
3 2 2 2 3 3 3 3 3 4 4 6 4 3 5 6 7 9 10 10 7 19 24 24 24 25 25 25 25 25 25 25 26 26 27 27 27 28
2 1 2 2 3 3 4 4 4 4 4 4 5 3 4 5 7 8 9 8 10 14 20 22 24 24 24 24 25 25 25 26 26 26 26 26 27 27
3 1 1 3 4 4 4 5 5 4 4 4 5 5 5 6 5 6 9 6 8 10 15 17 20 22 23 25 25 26 26 26 26 26 26 26 26 27
2 2 2 4 5 5 4 4 4 3 4 4 5 6 6 6 7 6 10 9 8 9 8 7 9 8 11 18 22 24 26 26 27 27 27 27 27 27
2 3 4 4 6 8 10 10 10 6 4 4 5 8 9 8 7 9 10 11 9 3 5 9 8 10 8 7 19 26 27 27 28 28 27 27 26 26
2 3 3 4 6 4 8 12 11 13 14 10 9 10 11 9 9 10 10 11 12 8 9 14 8 11 9 12 24 27 28 28 27 27 26 25 24 24
2 1 2 4 6 7 5 4 4 6 10 9 8 10 10 9 10 11 11 11 11 9 8 11 10 11 11 8 21 27 27 26 25 24 24 25 25 26
2 3 4 4 11 14 7 5 7 7 13 18 19 17 20 22 17 8 7 9 13 10 5 7 7 9 10 10 14 22 23 23 25 26 27 27 26 25
2 3 7 9 13 14 7 6 8 8 8 9 10 13 12 13 17 8 5 9 11 9 3 4 5 7 9 5 6 7 12 20 26 27 27 27 26 16
3 3 4 13 15 16 13 6 10 11 5 6 7 8 8 6 6 6 6 7 11 11 7 6 7 6 8 9 6 8 10 11 11 15 21 25 26 20
3 3 6 15 16 15 11 12 16 13 5 7 7 8 7 8 8 8 9 9 11 15 14 11 10 10 12 14 12 8 8 9 10 12 10 18 20 23
4 10 13 14 13 9 12 15 11 5 6 7 8 8 7 8 9 9 9 10 12 13 13 13 12 12 12 13 13 13 13 10 11 10 9 8 9 9
6 8 11 11 9 10 10 8 5 5 6 7 9 9 9 8 8 8 9 10 11 11 9 10 12 13 13 13 13 15 13 10 9 10 11 12 11 11
4 1 2 4 4 5 5 5 5 6 6 7 8 10 10 10 10 8 7 9 10 13 14 10 7 9 13 14 14 15 14 13 12 10 11 13 12 11
5 3 4 4 5 6 7 7 7 6 6 7 8 8 9 10 11 9 8 9 11 12 12 12 11 12 10 10 17 17 14 13 12 11 12 14 15 10
3 3 4 4 5 5 6 6 7 7 6 7 8 8 9 9 10 10 10 10 11 12 12 11 11 11 14 16 9 14 13 13 13 12 11 13 16 13
3 4 4 5 5 6 6 7 8 8 7 7 8 8 8 9 10 10 10 11 12 13 13 11 10 11 12 15 16 14 13 13 13 14 13 12 14 19
4 4 5 5 5 6 6 7 7 8 8 8 8 9 8 9 10 10 11 16 15 12 13 13 12 19 14 11 12 13 11 13 16 15 15 14 14 13
5 5 6 5 6 6 6 7 7 8 8 8 9 9 9 9 11 13 12 12 12 12 14 13 12 12 10 12 14 16 16 16 16 21 21 20 13 9
5 6 6 6 6 5 6 7 9 8 8 8 9 9 10 10 10 11 12 12 12 13 13 13 12 10 11 11 13 14 18 18 13 13 12 17 20 23
Wind_Direction
151 152 147 153 147 151 154 159 182 259 278 271 287 293 326 316 310 311 306 310 307 305 304 303 301 300 298 296 294 293 293 293 291 288 285 282 279 277
153 154 158 163 162 164 169 177 180 199 245 250 250 276 298 306 308 313 296 306 307 303 300 300 299 297 296 295 296 295 294 291 289 287 285 283 281 279
153 169 190 182 185 195 197 200 207 200 245 260 246 267 278 284 297 290 289 285 287 298 299 299 298 297 297 297 295 293 291 290 290 289 288 286 284 282
155 168 205 204 211 213 212 222 228 221 231 269 267 266 268 278 282 286 296 293 286 295 297 298 298 297 296 295 294 294 294 294 293 291 288 286 284 282
112 163 235 223 235 234 232 235 238 244 236 262 280 267 268 277 284 282 282 280 284 291 297 297 296 296 296 296 297 298 297 294 292 289 286 282 280 277
71 45 275 239 238 241 240 241 244 254 260 267 279 283 278 277 278 289 296 277 280 288 287 288 291 295 295 295 295 295 293 291 288 285 282 280 278 276
34 348 301 277 266 264 255 242 237 246 261 269 283 293 295 298 296 291 298 298 284 273 272 274 280 277 281 286 289 288 286 285 284 284 284 282 280 278
359 333 312 301 302 315 310 302 296 289 289 280 286 293 295 291 290 292 297 301 298 266 279 287 279 279 276 265 280 284 285 287 287 287 285 282 279 276
12 356 350 342 348 310 300 302 303 303 301 298 292 286 288 287 286 288 287 289 293 296 295 290 281 280 276 279 285 287 288 288 287 286 284 281 279 279
37 17 319 312 312 302 278 277 275 281 286 283 268 270 273 273 269 284 291 292 285 280 272 282 285 280 281 274 283 284 285 286 286 286 286 286 284 280
310 317 328 315 311 311 309 296 286 279 291 292 291 292 295 300 301 298 293 296 296 292 270 268 279 288 282 271 272 279 284 287 288 287 285 283 281 279
307 314 326 320 310 311 303 289 289 284 280 287 293 295 293 290 296 287 274 286 293 294 252 256 283 304 295 255 248 265 276 281 283 284 284 283 282 279
316 309 300 314 312 313 315 300 294 304 306 306 301 296 293 288 286 275 260 265 281 278 277 282 281 274 274 285 269 264 269 273 276 277 280 280 279 275
294 283 286 308 316 322 322 309 313 324 322 306 300 299 299 298 296 289 280 267 260 268 275 274 274 278 281 283 286 280 269 269 271 273 269 275 276 274
285 301 308 317 327 327 314 317 326 322 305 301 300 297 290 285 290 291 289 281 275 269 268 263 263 271 271 276 281 284 288 282 268 264 263 258 258 261
293 299 319 331 329 319 317 317 308 295 300 298 300 299 299 296 294 293 297 303 298 293 274 254 252 259 269 271 275 280 278 274 272 267 268 269 262 254
312 351 344 325 319 313 309 306 305 307 305 298 298 300 300 300 298 299 292 297 292 296 302 299 267 253 255 264 273 272 273 273 269 268 270 273 266 253
349 334 317 314 311 315 315 312 308 302 299 300 298 296 297 298 299 298 294 294 293 293 293 296 300 298 286 255 238 257 267 271 273 270 267 273 275 260
338 306 299 299 299 299 299 299 299 298 297 296 294 294 295 295 297 298 299 297 294 292 291 291 293 295 299 301 271 231 253 274 279 277 270 268 274 275
303 294 293 295 296 297 298 298 299 302 300 297 295 293 293 295 296 296 296 295 296 296 297 294 290 291 293 296 297 289 264 268 279 282 281 275 271 274
305 297 291 290 291 292 293 293 293 294 295 296 295 294 294 296 295 294 294 296 298 296 298 298 293 297 294 289 288 291 292 280 279 282 286 284 284 280
301 299 296 290 290 290 291 292 294 294 295 294 294 293 293 292 292 293 293 296 296 294 294 295 297 299 299 299 298 298 301 301 295 290 282 275 278 281
299 300 296 294 289 285 286 288 290 291 290 290 291 292 293 293 291 290 292 293 294 298 303 306 308 306 303 300 300 300 302 306 306 306 297 288 282 276